Location: *
(54.9566°N, 7.7203°W)
Time: 22:10:22
(UTC+00:00)

Daily predictions for brighter satellites

Satellite Brightness Start Highest point End
(mag) Time Altitude Azimuth Time Altitude Azimuth Time Altitude Azimuth
Cosmos 1844 Rocket 3.1 16:36:34 10° NW 16:42:08 69° WSW 16:47:39 10° SSE
Cosmos 1048 Rocket 4.2 16:38:56 10° SSW 16:44:15 66° ESE 16:49:37 10° NNE
Meteor 1-26 Rocket 4.5 16:38:38 10° S 16:44:17 55° E 16:49:48 10° NNE
Cosmos 1302 Rocket 4.0 16:39:28 10° NNW 16:44:46 66° ENE 16:50:00 10° SE
Cosmos 371 Rocket 3.7 16:40:34 10° NNW 16:45:29 72° WSW 16:50:20 10° SSE
SJ-12 4.1 16:44:07 10° SSE 16:48:16 80° WSW 16:52:28 10° NNW
Cosmos 1340 2.7 16:44:31 10° N 16:48:17 60° ENE 16:52:02 10° SSE
Cosmos 1500 4.4 16:45:24 10° NNE 16:48:25 22° ENE 16:51:23 10° ESE
ERBS 4.4 16:46:53 10° W 16:49:53 31° SW 16:52:53 10° SSE
Cosmos 1602 3.7 16:47:37 10° N 16:51:29 62° ENE 16:55:20 10° SSE
SeaSat 1 4.1 16:49:18 10° ENE 16:52:15 16° NNE 16:55:12 10° NNW
Cosmos 1943 Rocket 3.6 16:49:18 10° NNW 16:53:19 19° NNE 16:57:19 10° ENE
Feng Yun 1-1 Rocket 4.5 16:48:41 10° SE 16:53:46 44° ENE 16:58:53 10° N
Cosmos 1689 Rocket 2.7 16:53:25 10° NNE 16:56:20 39° E 16:59:13 10° S
Cosmos 1536 4.1 16:54:20 10° NNE 16:57:24 20° ENE 17:00:26 10° ESE
Lacrosse 4 Rocket 3.5 16:57:13 10° NW 16:59:29 14° N 17:01:47 10° NNE
CENTAUR R/B 4.1 16:52:11 10° NW 16:59:47 55° SW 17:08:05 10° SSE
Cosmos 2237 4.4 16:54:18 10° SSW 16:59:57 65° ESE 17:05:39 10° NE
YAOGAN 6 4.3 16:59:48 10° E 17:01:42 14° ENE 17:03:37 10° NNE
H-2A R/B 3.5 17:00:32 10° N 17:04:14 33° WNW 17:07:55 10° SW
H-2A R/B 3.3 17:01:07 10° SE 17:04:27 33° ENE 17:07:49 10° N
IRS-1C Rocket 4.2 17:01:01 10° SE 17:06:09 56° ENE 17:11:20 10° N
USA 215 3.7 17:00:01 10° ENE 17:06:23 52° SE 17:12:43 10° SW
ASTEX 1 4.2 17:02:15 10° N 17:07:07 55° WNW 17:11:55 10° SSW
YAOGAN 1 4.1 17:05:53 10° E 17:08:29 16° NE 17:11:05 10° NNE
Meteor 1-5 Rocket 4.3 17:05:15 10° N 17:10:48 54° ENE 17:16:08 10° SSE
COSMOS 2428 3.5 17:06:03 10° S 17:11:06 34° ESE 17:16:07 10° NE
CZ-4 R/B 2.8 17:11:10 10° E 17:13:43 17° ENE 17:16:15 10° NNE
Lacrosse 5 rocket 3.4 17:11:45 10° SSE 17:14:06 15° SE 17:16:23 10° E
Meteor 1-28 Rocket 3.7 17:11:49 10° N 17:15:33 62° WNW 17:19:15 10° SSW
Cosmos 1733 Rocket 3.3 17:11:58 10° N 17:16:12 46° ENE 17:20:26 10° SSE
NOSS 7 (D) 4.0 17:15:49 10° NW 17:18:38 59° NE 17:21:43 10° ESE
Envisat 3.4 17:15:58 10° SE 17:20:38 38° ENE 17:25:20 10° N
NOSS 2-2 (D) 3.5 17:17:44 10° WSW 17:21:31 73° NW 17:25:32 13° NE
SL-4 R/B 3.5 17:19:06 10° SSW 17:22:07 23° SSE 17:25:06 11° E
Cosmos 1869 Rocket 4.3 17:19:50 10° NNW 17:24:11 59° W 17:28:32 10° S
Cosmos 1867 4.2 17:20:25 10° NW 17:25:32 38° NNE 17:30:02 13° E
Genesis I 3.7 17:22:07 10° NW 17:25:52 39° NNE 17:29:11 12° E
ISS -1.9 17:23:08 10° W 17:26:08 30° SSW 17:29:09 10° SE
Cosmos 2333 4.4 17:23:20 10° SSW 17:28:58 61° ESE 17:34:20 12° NE
Cosmos 1992 Rocket 4.0 17:24:02 10° NNW 17:29:14 63° ENE 17:34:26 10° SE
CZ-4B R/B 4.1 17:25:21 10° S 17:30:34 54° W 17:35:55 10° NNW
Cosmos 1606 4.1 17:29:03 10° SW 17:32:35 37° WNW 17:36:11 10° N
Cosmos 1782 2.9 17:28:47 10° SSW 17:32:47 82° WNW 17:36:48 10° N
Cosmos 1666 3.6 17:29:55 10° N 17:33:10 26° ENE 17:36:21 10° SE
NOSS 3-1 (C) 4.3 17:27:06 10° WNW 17:33:22 44° N 17:39:19 16° ENE
Cosmos 1346 Rocket 3.7 17:29:43 10° NNW 17:33:35 53° W 17:37:28 10° S
Cosmos 2322 3.7 17:28:41 10° SSW 17:34:22 74° ESE 17:39:42 12° NE
Cosmos 1900 4.2 17:29:48 10° NW 17:34:44 77° NE 17:39:37 10° SE
Helios 1A Rocket 4.3 17:32:12 10° S 17:36:07 43° W 17:40:04 10° NNW
CZ-4B R/B 2.7 17:33:02 10° N 17:36:23 42° WNW 17:39:43 10° SW
Cosmos 2278 Rocket 2.2 17:32:37 10° NNW 17:38:21 89° ENE 17:44:01 10° SSE
NOSS 5 (C) 4.2 17:35:40 10° NW 17:38:41 62° NE 17:42:15 10° ESE
Cosmos 1315 Rocket 2.8 17:35:12 10° S 17:39:12 86° ESE 17:43:18 10° NNE
COBE Rocket 4.1 17:35:51 10° NNE 17:40:18 43° E 17:44:44 10° SSE
ATLAS 3B R/B 4.3 17:34:41 10° NW 17:40:45 38° WSW 17:46:56 10° S
Cosmos 2344 4.3 17:32:51 10° WNW 17:40:52 53° N 17:49:33 16° E
USA 229 DEB 4.2 17:34:25 10° WNW 17:41:04 45° N 17:46:22 17° ENE
USA 229 4.2 17:34:31 10° WNW 17:41:10 45° N 17:46:26 17° ENE
Meteor 2-6 Rocket 4.1 17:35:53 10° S 17:41:11 65° E 17:46:35 10° NNE
COSMOS 2455 3.4 17:37:39 10° WSW 17:43:33 53° NW 17:48:44 14° NE
Cosmos 1782 Rocket 4.5 17:40:55 10° N 17:44:36 26° ENE 17:48:15 10° ESE
SMAP 3.1 17:41:00 10° SSE 17:45:40 87° WSW 17:50:22 10° NNW
NOSS 3-1 (A) 4.3 17:39:56 10° WNW 17:46:09 43° N 17:51:16 19° ENE
Cosmos 921 Rocket 3.7 17:43:14 10° N 17:47:01 30° NE 17:49:41 16° ESE
NOSS 3-4 (A) 3.5 17:41:26 10° SW 17:47:30 75° SE 17:52:28 18° NE
NOSS 3-4 (C) 3.5 17:41:32 10° SW 17:47:36 75° SE 17:52:34 18° NE
Cosmos 2360 Rocket 2.5 17:42:30 10° SW 17:48:08 65° NW 17:53:27 12° NNE
Cosmos 1400 Rocket 4.3 17:45:01 10° SW 17:48:49 36° WNW 17:52:36 10° N
Cosmos 2369 Rocket 3.2 17:47:44 10° NNW 17:52:25 26° NNE 17:54:28 21° ENE
ALOS 4.5 17:50:13 10° SSW 17:54:13 28° W 17:58:15 10° NNW
Okean O Rocket 3.6 17:50:46 10° SSW 17:54:38 31° W 17:58:31 10° NNW
Cosmos 1980 Rocket 4.0 17:51:04 10° WNW 17:55:28 22° NNW 17:59:47 10° NNE
Meteor 1-10 Rocket 4.1 17:51:06 10° S 17:56:37 75° E 18:02:16 10° NNE
SL-16 R/B 3.9 17:55:07 10° SE 17:57:01 14° ESE 17:57:01 14° ESE
Cosmos 1862 Rocket 3.7 17:54:06 10° S 17:58:19 52° E 18:01:59 14° NNE
NOSS 2-2 (C) 4.1 17:55:34 10° WSW 17:59:21 48° NNW 18:02:07 21° NE
Cosmos 1092 Rocket 4.4 17:53:51 10° SSE 17:59:37 40° E 18:05:23 10° NNE
Cosmos 2242 Rocket 4.1 17:56:19 10° SSE 18:00:32 38° E 18:03:10 20° NE
Cosmos 2333 Rocket 2.2 17:56:42 10° SSW 18:02:26 74° ESE 18:06:45 18° NE
Ariane Rocket 3.9 18:03:29 25° ENE 18:03:58 26° NE 18:08:05 10° N
Cosmos 494 Rocket 4.5 17:58:53 10° SW 18:04:06 60° WNW 18:08:58 12° NNE
Cosmos 292 Rocket 3.7 18:00:34 10° NNW 18:05:27 70° ENE 18:10:19 10° SE
Meteor 1-11 Rocket 4.0 18:00:37 10° NNW 18:06:36 77° W 18:12:33 10° S
BREEZE-M R/B 3.9 18:02:23 10° WSW 18:07:49 41° S 18:09:34 23° SE
Okean-O 2.6 18:04:26 10° SSE 18:08:52 89° WSW 18:13:21 10° NNW
Cosmos 1812 2.6 18:05:06 10° S 18:08:57 66° E 18:11:26 21° NNE
STARLINK-67 3.1 18:06:34 10° WSW 18:09:14 44° SSE 18:09:35 41° SE
Cosmos 2237 Rocket 2.7 18:04:14 10° S 18:09:28 39° ESE 18:11:47 27° ENE
Cosmos 2322 Rocket 3.5 18:08:44 10° WSW 18:13:48 33° NW 18:18:16 13° NNE
NOAA 12 4.2 18:08:33 10° SSE 18:13:53 80° WSW 18:19:12 10° NNW
Cosmos 1707 Rocket 4.2 18:09:51 10° SSW 18:14:16 59° WNW 18:18:43 10° N
RESURS DK-1 2.3 18:10:11 10° SSW 18:14:16 67° ESE 18:15:53 35° NE
Meteor 1-27 Rocket 3.7 18:10:51 10° S 18:16:34 69° E 18:22:25 10° NNE
SL-16 R/B 3.7 18:15:52 10° W 18:20:47 29° NW 18:24:58 13° NNE
Cosmos 1500 4.3 18:20:37 10° NNW 18:24:14 44° W 18:27:49 10° SSW
S3M 4.4 18:18:59 10° N 18:24:45 36° ENE 18:27:13 27° ESE
Cosmos 2219 Rocket 2.2 18:19:21 10° SW 18:24:59 84° NW 18:28:41 23° NNE
ATLAS 2AS CENTAUR R/B 3.2 18:17:32 10° WSW 18:25:35 71° NNW 18:30:47 24° NE
STARLINK-46 4.3 18:24:26 10° SW 18:26:06 23° S 18:26:06 23° S
Cosmos 1908 Rocket 3.5 18:23:58 10° NNW 18:28:26 89° SW 18:32:49 10° S
SeaSat 1 2.9 18:28:08 36° ENE 18:28:45 38° NE 18:33:18 10° NNW
COSMO-SKYMED 1 2.7 18:30:23 46° ENE 18:30:51 48° E 18:35:04 10° S
Cosmos 1536 3.5 18:30:12 10° NNW 18:34:11 56° W 18:38:07 10° S
YAOGAN 6 2.6 18:31:09 10° S 18:34:42 80° WSW 18:38:19 10° NNW
Cosmos 1441 Rocket 3.0 18:34:14 10° NNW 18:38:08 81° ENE 18:41:57 10° SSE
Cosmos 1943 Rocket 2.5 18:33:08 10° NNW 18:38:34 44° NE 18:39:24 41° ENE
Nadezhda 4 Rocket 4.0 18:32:39 10° SSW 18:39:01 85° W 18:45:23 10° N
Cosmos 1553 Rocket 4.1 18:33:01 10° N 18:39:13 54° ENE 18:45:29 10° SSE
Exosat Rocket 3.4 18:34:18 10° SSW 18:39:27 80° ESE 18:41:34 36° NE
Lacrosse 4 Rocket 3.4 18:37:06 10° NNW 18:38:59 16° N 18:38:59 16° N
Cosmos 1980 3.7 18:34:20 10° SSW 18:39:53 63° ESE 18:41:50 40° NE
Cosmos 2297 3.6 18:34:10 10° NNW 18:39:56 87° ENE 18:45:25 11° SSE
Cosmos 2251 Rocket 3.4 18:36:03 10° SSW 18:41:21 83° ESE 18:43:49 33° NNE
YAOGAN 1 2.4 18:39:37 10° SSE 18:43:57 83° ENE 18:48:19 10° NNW
CSL-04 Rocket 3.5 18:42:46 10° SSE 18:48:04 87° ENE 18:53:25 10° NNW
CZ-4 R/B 1.4 18:44:26 10° S 18:48:19 73° WSW 18:52:13 10° NNW
USA 215 3.2 18:46:59 38° ENE 18:49:46 87° NNW 18:56:20 10° WSW
Lacrosse 5 rocket 1.7 18:48:31 10° SW 18:52:16 50° S 18:52:16 50° S
H-2A R/B 3.9 18:56:22 16° N 18:56:22 16° N 18:57:33 10° N
SKYMED 3 4.4 18:54:49 75° ENE 18:55:05 79° ESE 18:59:26 10° SSW
COSMOS 2428 3.1 18:49:31 10° SW 18:55:08 60° NW 18:58:08 28° NNE
Okean 1-7 3.8 18:53:14 10° S 18:56:06 39° SSE 18:56:06 39° SSE
Envisat 4.2 18:54:50 10° SSW 18:59:39 43° W 19:04:31 10° NNW
Cosmos 489 Rocket 4.4 18:53:26 10° NNW 18:59:49 73° ENE 19:02:47 34° SE
SL-4 R/B 2.6 18:57:26 10° WSW 19:00:43 46° SSW 19:00:43 46° SSW
Cosmos 2026 Rocket 3.8 18:55:25 10° S 19:01:26 72° E 19:05:53 19° NNE
CSL-04 Debris 4.3 18:56:23 10° SSE 19:01:51 76° WSW 19:07:19 10° NNW
ISS -0.6 19:01:27 10° SW 19:02:06 10° SW 19:02:47 10° SSW
Genesis I 4.0 18:59:47 10° NW 19:03:34 47° SW 19:04:08 43° SSW
Cosmos 1666 4.3 19:05:23 10° NNW 19:08:49 34° W 19:12:14 10° SSW
Cosmos 1867 3.5 19:04:10 10° NW 19:09:41 86° SW 19:10:44 60° SE
Cosmos 1417 Rocket 4.3 19:04:05 10° N 19:10:15 79° ENE 19:16:24 10° SSE
Meteor 2-9 Rocket 4.2 19:05:17 10° NNW 19:11:12 72° ENE 19:12:27 55° SE
Sich 1 Rocket 3.7 19:10:57 10° NNW 19:15:22 71° W 19:15:22 71° W
SKYMED 2 3.9 19:19:05 65° WNW 19:19:05 65° WNW 19:23:22 10° SSW
NOAA 11 4.4 19:17:01 10° S 19:22:27 70° WSW 19:27:57 10° NNW
Cosmos 1782 Rocket 4.4 19:18:31 10° NNW 19:22:44 48° W 19:26:55 10° SSW
NOSS 3-1 (C) 3.8 19:18:17 10° NW 19:25:18 72° NNE 19:26:44 59° E
Cosmos 921 Rocket 4.0 19:21:24 10° NW 19:25:27 44° WSW 19:26:36 35° SW
Cosmos 1627 Rocket 4.5 19:20:33 10° SSW 19:26:40 77° WNW 19:32:11 13° N
COSMOS 2455 4.2 19:25:38 10° WNW 19:30:46 28° NNW 19:31:53 26° N
USA 229 DEB 3.7 19:25:49 10° NW 19:32:58 77° NE 19:33:49 68° E
USA 229 3.7 19:25:56 10° NW 19:33:03 76° NE 19:33:53 69° E
Cosmos 2360 Rocket 4.0 19:28:43 10° W 19:33:15 24° NNW 19:35:13 20° N
NOSS 0 Rocket 4.3 19:30:07 10° SW 19:36:17 63° NW 19:37:51 48° N
Cosmos 2369 Rocket 2.4 19:31:40 10° NNW 19:36:16 59° NNW 19:36:16 59° NNW
NOSS 3-1 (A) 3.8 19:31:16 10° NW 19:38:12 66° NNE 19:38:44 64° NE
NOSS 3-4 (A) 4.1 19:32:47 10° W 19:38:50 49° NNW 19:39:54 45° N
NOSS 3-4 (C) 4.1 19:32:54 10° W 19:38:56 49° NNW 19:40:00 45° N
SL-16 R/B 3.1 19:35:35 10° SSW 19:38:57 37° S 19:38:57 37° S
Cosmos 1980 Rocket 4.2 19:38:13 10° NW 19:41:33 16° N 19:41:33 16° N
Ariane Rocket 3.6 19:43:41 52° NW 19:43:41 52° NW 19:47:37 10° NNW
IRS-1A Rocket 4.4 19:43:59 67° SSW 19:44:41 76° WSW 19:50:39 10° NNW
Cosmos 2333 Rocket 3.5 19:42:00 10° WSW 19:47:14 34° NW 19:48:46 29° N
Cosmos 2237 Rocket 2.7 19:47:50 10° SW 19:53:26 54° NW 19:53:38 54° NW
Cosmos 2344 4.1 19:47:36 10° NW 19:56:36 87° NE 19:59:36 56° SE
Cosmos 2322 Rocket 4.3 19:56:02 10° NW 19:59:40 17° NNW 20:00:05 17° N
SeaSat 1 3.8 20:07:56 36° WNW 20:07:56 36° WNW 20:11:03 10° NW
SL-16 R/B 4.3 20:03:18 10° NW 20:06:50 16° N 20:06:50 16° N
Cosmos 2219 Rocket 3.8 20:04:58 10° W 20:09:45 27° NNW 20:10:24 27° NNW
ATLAS 2AS CENTAUR R/B 3.6 20:10:04 10° W 20:17:46 46° N 20:18:13 46° N
Cosmos 1943 Rocket 3.4 20:17:01 10° NW 20:20:57 39° WNW 20:20:57 39° WNW
USA 215 3.8 20:34:20 54° WNW 20:34:20 54° WNW 20:39:18 10° W
